timestamp,wind_dir_avg,wind_spd_avg,wind_spd_max_dir,wind_spd_gust,battery_voltage,lat,long
2022-01-28 00:04:01+00:00,5.0,6.63,5.0,7.65,12.49,47.59359,-54.27349
2022-01-28 00:14:01+00:00,354.0,6.06,332.0,7.53,12.41,47.59359,-54.27349
2022-01-28 00:24:01+00:00,341.0,5.59,328.0,7.23,12.41,47.59359,-54.27349
2022-01-28 00:34:01+00:00,342.0,5.87,325.0,7.56,12.41,47.59359,-54.27349
2022-01-28 00:44:01+00:00,2.0,4.81,325.0,6.44,12.41,47.59359,-54.27349
2022-01-28 00:54:01+00:00,8.0,5.57,13.0,6.4,12.41,47.59359,-54.27349
2022-01-28 01:04:01+00:00,16.0,6.42,19.0,7.14,12.41,47.59359,-54.27349
2022-01-28 01:14:01+00:00,18.0,5.79,21.0,6.74,12.41,47.59359,-54.27349
2022-01-28 01:24:01+00:00,10.0,5.59,12.0,6.7,12.41,47.59359,-54.27349
2022-01-28 01:34:01+00:00,22.0,4.88,27.0,5.54,12.41,47.59359,-54.27349
2022-01-28 01:44:01+00:00,14.0,5.23,19.0,6.26,12.41,47.59359,-54.27349
2022-01-28 01:54:01+00:00,24.0,4.69,23.0,5.67,12.41,47.59359,-54.27349
2022-01-28 02:04:01+00:00,19.0,5.29,21.0,6.59,12.41,47.59359,-54.27349
2022-01-28 02:14:00+00:00,14.0,5.34,22.0,6.16,12.41,47.59359,-54.27349
2022-01-28 02:24:00+00:00,329.0,5.86,328.0,6.71,12.41,47.59359,-54.27349
2022-01-28 02:34:00+00:00,6.0,5.28,328.0,6.33,12.41,47.59359,-54.27349
2022-01-28 02:44:00+00:00,8.0,4.58,26.0,5.61,12.41,47.59359,-54.27349
2022-01-28 02:54:00+00:00,21.0,4.73,16.0,5.4,12.41,47.59359,-54.27349
2022-01-28 03:04:00+00:00,18.0,4.17,11.0,5.12,12.41,47.59359,-54.27349
2022-01-28 03:14:00+00:00,14.0,4.13,22.0,5.01,12.33,47.59359,-54.27349
2022-01-28 03:24:00+00:00,328.0,3.46,313.0,4.98,12.33,47.59359,-54.27349
2022-01-28 03:34:00+00:00,349.0,3.49,322.0,4.89,12.33,47.59359,-54.27349
2022-01-28 03:44:00+00:00,13.0,3.91,319.0,5.02,12.33,47.59359,-54.27349
2022-01-28 03:54:00+00:00,348.0,3.97,323.0,5.17,12.33,47.59359,-54.27349
2022-01-28 04:04:00+00:00,8.0,4.29,26.0,5.57,12.33,47.59359,-54.27349
2022-01-28 04:14:00+00:00,2.0,4.97,11.0,6.11,12.33,47.59359,-54.27349
2022-01-28 04:24:00+00:00,1.0,4.87,343.0,5.64,12.33,47.59359,-54.27349
2022-01-28 04:34:00+00:00,9.0,4.69,15.0,5.44,12.33,47.59359,-54.27349
2022-01-28 04:44:00+00:00,337.0,5.67,328.0,6.48,12.33,47.59359,-54.27349
2022-01-28 04:54:00+00:00,355.0,5.24,16.0,6.09,12.33,47.59359,-54.27349
2022-01-28 05:04:00+00:00,346.0,4.93,336.0,5.68,12.33,47.59359,-54.27349
2022-01-28 05:14:00+00:00,333.0,4.98,325.0,5.77,12.33,47.59359,-54.27349
2022-01-28 05:24:00+00:00,328.0,5.4,325.0,6.14,12.33,47.59359,-54.27349
2022-01-28 05:34:00+00:00,335.0,4.89,324.0,5.97,12.33,47.59359,-54.27349
2022-01-28 05:44:00+00:00,347.0,3.98,322.0,5.21,12.33,47.59359,-54.27349
2022-01-28 05:54:00+00:00,358.0,4.35,340.0,5.34,12.33,47.59359,-54.27349
2022-01-28 06:04:00+00:00,16.0,3.86,34.0,4.52,12.33,47.59359,-54.27349
2022-01-28 06:14:00+00:00,16.0,3.36,15.0,4.38,12.33,47.59359,-54.27349
2022-01-28 06:24:00+00:00,358.0,3.43,332.0,4.51,12.33,47.59359,-54.27349
2022-01-28 06:34:00+00:00,49.0,2.27,33.0,4.04,12.33,47.59359,-54.27349
2022-01-28 06:44:00+00:00,48.0,2.51,45.0,3.36,12.33,47.59359,-54.27349
2022-01-28 06:54:00+00:00,36.0,2.01,33.0,2.43,12.33,47.59359,-54.27349
2022-01-28 07:04:00+00:00,63.0,2.37,69.0,3.06,12.33,47.59359,-54.27349
2022-01-28 07:14:00+00:00,94.0,1.72,103.0,2.12,12.25,47.59359,-54.27349
2022-01-28 07:24:00+00:00,95.0,2.29,101.0,2.78,12.25,47.59359,-54.27349
2022-01-28 07:34:00+00:00,124.0,2.14,111.0,2.89,12.25,47.59359,-54.27349
2022-01-28 07:44:00+00:00,108.0,2.73,109.0,3.08,12.25,47.59359,-54.27349
2022-01-28 07:54:00+00:00,168.0,0.81,110.0,3.1,12.25,47.59359,-54.27349
2022-01-28 08:04:00+00:00,215.0,1.65,232.0,3.33,12.25,47.59359,-54.27349
2022-01-28 08:14:00+00:00,273.0,1.91,274.0,2.65,12.25,47.59359,-54.27349
2022-01-28 08:24:00+00:00,61.0,0.35,274.0,2.68,12.25,47.59359,-54.27349
2022-01-28 08:34:00+00:00,305.0,0.58,276.0,2.48,12.25,47.59359,-54.27349
2022-01-28 08:44:00+00:00,271.0,1.98,276.0,2.41,12.25,47.59359,-54.27349
2022-01-28 08:54:00+00:00,317.0,1.68,40.0,3.15,12.25,47.59359,-54.27349
2022-01-28 09:04:00+00:00,326.0,2.63,326.0,3.18,12.25,47.59359,-54.27349
2022-01-28 09:14:00+00:00,316.0,2.15,310.0,3.1,12.25,47.59359,-54.27349
2022-01-28 09:24:00+00:00,316.0,2.39,309.0,3.0,12.25,47.59359,-54.27349
2022-01-28 09:34:00+00:00,313.0,2.34,305.0,3.2,12.25,47.59359,-54.27349
2022-01-28 09:44:00+00:00,287.0,1.81,292.0,2.63,12.25,47.59359,-54.27349
2022-01-28 09:54:00+00:00,277.0,1.53,290.0,2.78,12.25,47.59359,-54.27349
2022-01-28 10:04:00+00:00,274.0,1.19,277.0,2.22,12.25,47.59359,-54.27349
2022-01-28 10:14:01+00:00,350.0,1.55,311.0,3.0,12.25,47.59359,-54.27349
2022-01-28 10:24:01+00:00,327.0,1.76,326.0,2.58,12.25,47.59359,-54.27349
2022-01-28 10:34:01+00:00,337.0,1.75,313.0,2.89,12.25,47.59359,-54.27349
2022-01-28 10:44:01+00:00,7.0,1.86,29.0,2.59,12.25,47.59359,-54.27349
2022-01-28 10:54:01+00:00,13.0,2.42,9.0,3.48,12.25,47.59359,-54.27349
2022-01-28 11:04:01+00:00,12.0,3.14,7.0,3.81,12.25,47.59359,-54.27349
2022-01-28 11:14:00+00:00,5.0,3.18,2.0,3.99,12.17,47.59359,-54.27349
2022-01-28 11:24:00+00:00,355.0,3.37,357.0,4.08,12.17,47.59359,-54.27349
2022-01-28 11:34:00+00:00,359.0,2.52,358.0,3.2,12.17,47.59359,-54.27349
2022-01-28 11:44:00+00:00,14.0,2.25,14.0,2.8,12.17,47.59359,-54.27349
2022-01-28 11:54:00+00:00,6.0,2.79,5.0,3.58,12.17,47.59359,-54.27349
2022-01-28 12:04:00+00:00,356.0,2.77,358.0,3.3,12.17,47.59359,-54.27349
2022-01-28 12:14:01+00:00,21.0,1.94,20.0,2.39,13.05,47.59359,-54.27349
2022-01-28 12:24:01+00:00,0.0,1.25,14.0,1.91,13.05,47.59359,-54.27349
2022-01-28 12:34:01+00:00,237.0,0.33,221.0,1.03,13.05,47.59359,-54.27349
2022-01-28 12:44:01+00:00,270.0,0.06,242.0,0.19,13.05,47.59359,-54.27349
2022-01-28 12:54:01+00:00,214.0,4.82,241.0,7.89,13.05,47.59359,-54.27349
2022-01-28 13:04:01+00:00,225.0,5.7,244.0,8.19,13.05,47.59359,-54.27349
2022-01-28 13:14:01+00:00,218.0,3.0,205.0,4.88,13.21,47.59359,-54.27349
2022-01-28 13:24:01+00:00,213.0,4.5,228.0,5.64,13.21,47.59359,-54.27349
2022-01-28 13:34:01+00:00,217.0,4.06,226.0,6.05,13.21,47.59359,-54.27349
2022-01-28 13:44:01+00:00,211.0,3.86,205.0,4.85,13.21,47.59359,-54.27349
2022-01-28 13:54:01+00:00,244.0,3.99,232.0,5.48,13.21,47.59359,-54.27349
2022-01-28 14:04:01+00:00,246.0,4.62,256.0,6.93,13.21,47.59359,-54.27349
2022-01-28 14:14:00+00:00,256.0,3.45,261.0,4.88,13.44,47.59359,-54.27349
2022-01-28 14:24:00+00:00,246.0,2.69,263.0,5.69,13.44,47.59359,-54.27349
2022-01-28 14:34:00+00:00,261.0,4.62,272.0,6.93,13.44,47.59359,-54.27349
2022-01-28 14:44:00+00:00,252.0,2.76,273.0,4.76,13.44,47.59359,-54.27349
2022-01-28 14:54:00+00:00,261.0,5.3,265.0,6.88,13.44,47.59359,-54.27349
2022-01-28 15:04:00+00:00,257.0,5.22,259.0,6.63,13.44,47.59359,-54.27349
2022-01-28 15:14:00+00:00,236.0,4.26,231.0,5.76,13.44,47.59359,-54.27349
2022-01-28 15:24:00+00:00,262.0,5.46,265.0,7.1,13.44,47.59359,-54.27349
2022-01-28 15:34:00+00:00,257.0,5.31,263.0,6.91,13.44,47.59359,-54.27349
2022-01-28 15:44:00+00:00,206.0,7.93,207.0,8.88,13.44,47.59359,-54.27349
2022-01-28 15:54:00+00:00,222.0,9.62,237.0,16.04,13.44,47.59359,-54.27349
2022-01-28 16:04:00+00:00,213.0,8.19,228.0,10.24,13.44,47.59359,-54.27349
2022-01-28 16:14:00+00:00,217.0,8.58,222.0,10.01,13.44,47.59359,-54.27349
2022-01-28 16:24:00+00:00,226.0,11.55,237.0,15.71,13.44,47.59359,-54.27349
2022-01-28 16:34:00+00:00,203.0,10.13,201.0,11.63,13.44,47.59359,-54.27349
2022-01-28 16:44:00+00:00,205.0,9.31,204.0,10.93,13.44,47.59359,-54.27349
2022-01-28 16:54:00+00:00,217.0,11.44,232.0,16.48,13.44,47.59359,-54.27349
2022-01-28 17:04:00+00:00,222.0,11.61,234.0,15.13,13.44,47.59359,-54.27349
2022-01-28 17:14:01+00:00,221.0,11.11,234.0,15.26,13.21,47.59359,-54.27349
2022-01-28 17:24:01+00:00,229.0,8.78,247.0,11.31,13.21,47.59359,-54.27349
2022-01-28 17:34:01+00:00,212.0,9.19,215.0,10.59,13.21,47.59359,-54.27349
2022-01-28 17:44:01+00:00,219.0,8.64,223.0,10.52,13.21,47.59359,-54.27349
2022-01-28 17:54:01+00:00,208.0,9.8,205.0,11.15,13.21,47.59359,-54.27349
2022-01-28 18:04:01+00:00,215.0,8.29,215.0,10.12,13.21,47.59359,-54.27349
2022-01-28 18:14:00+00:00,206.0,10.33,209.0,11.57,13.05,47.59359,-54.27349
2022-01-28 18:24:00+00:00,209.0,9.64,212.0,11.01,13.05,47.59359,-54.27349
2022-01-28 18:34:00+00:00,212.0,9.02,212.0,10.06,13.05,47.59359,-54.27349
2022-01-28 18:44:00+00:00,217.0,7.77,214.0,9.04,13.05,47.59359,-54.27349
2022-01-28 18:54:00+00:00,221.0,7.35,225.0,8.27,13.05,47.59359,-54.27349
2022-01-28 19:04:00+00:00,209.0,10.04,211.0,11.48,13.05,47.59359,-54.27349
2022-01-28 19:14:01+00:00,210.0,10.2,212.0,11.29,12.81,47.59359,-54.27349
2022-01-28 19:24:01+00:00,221.0,7.92,217.0,9.04,12.81,47.59359,-54.27349
2022-01-28 19:34:01+00:00,219.0,10.2,210.0,12.98,12.81,47.59359,-54.27349
2022-01-28 19:44:01+00:00,220.0,9.05,218.0,10.4,12.81,47.59359,-54.27349
2022-01-28 19:54:01+00:00,213.0,9.49,213.0,11.56,12.81,47.59359,-54.27349
2022-01-28 20:04:01+00:00,224.0,8.31,232.0,10.09,12.81,47.59359,-54.27349
2022-01-28 20:14:00+00:00,226.0,9.19,223.0,11.41,12.57,47.59359,-54.27349
2022-01-28 20:24:00+00:00,230.0,7.37,233.0,9.56,12.57,47.59359,-54.27349
2022-01-28 20:34:00+00:00,207.0,10.63,209.0,11.81,12.57,47.59359,-54.27349
2022-01-28 20:44:00+00:00,216.0,9.77,224.0,11.3,12.57,47.59359,-54.27349
2022-01-28 20:54:00+00:00,218.0,10.87,213.0,12.85,12.57,47.59359,-54.27349
2022-01-28 21:04:00+00:00,214.0,9.29,208.0,10.66,12.57,47.59359,-54.27349
2022-01-28 21:14:01+00:00,224.0,7.89,231.0,9.62,12.49,47.59359,-54.27349
2022-01-28 21:24:01+00:00,211.0,10.1,218.0,11.63,12.49,47.59359,-54.27349
2022-01-28 21:34:01+00:00,222.0,8.33,222.0,9.54,12.49,47.59359,-54.27349
2022-01-28 21:44:01+00:00,225.0,7.79,240.0,10.5,12.49,47.59359,-54.27349
2022-01-28 21:54:01+00:00,219.0,6.8,222.0,9.5,12.49,47.59359,-54.27349
2022-01-28 22:04:01+00:00,178.0,7.88,187.0,9.16,12.49,47.59359,-54.27349
2022-01-28 22:14:00+00:00,193.0,7.11,194.0,8.34,12.49,47.59359,-54.27349
2022-01-28 22:24:00+00:00,184.0,7.6,192.0,9.07,12.49,47.59359,-54.27349
2022-01-28 22:34:00+00:00,198.0,9.45,219.0,12.27,12.49,47.59359,-54.27349
2022-01-28 22:44:00+00:00,198.0,7.44,204.0,8.5,12.49,47.59359,-54.27349
2022-01-28 22:54:00+00:00,202.0,7.27,199.0,8.41,12.49,47.59359,-54.27349
2022-01-28 23:04:00+00:00,175.0,8.56,193.0,10.28,12.49,47.59359,-54.27349
2022-01-28 23:14:01+00:00,173.0,8.46,165.0,10.02,12.41,47.59359,-54.27349
2022-01-28 23:24:01+00:00,172.0,9.71,167.0,10.95,12.41,47.59359,-54.27349
2022-01-28 23:34:01+00:00,211.0,11.1,219.0,13.42,12.41,47.59359,-54.27349
2022-01-28 23:44:01+00:00,180.0,8.71,172.0,10.17,12.41,47.59359,-54.27349
2022-01-28 23:54:01+00:00,168.0,8.82,172.0,9.95,12.41,47.59359,-54.27349
